Погода в Черногорске

Россия / Республика Хакасия     53°49′37″N   91°18′21″E
темп.,
°C
ветер,
м/с
пор.,
м/с
влажн.,
%
обл.,
%
осадки,
мм/ч
давл.,
гПа
погр.,
м
13 июня, вс
вс1301:00+12зсз2260100 0.0 101324
04:00+10з1267100 0.0 101313
07:00+12юз1164100 0.0 1014116
10:00+17ссз124840 0.0 10131003
13:00+20в033664 0.0 10122575
16:00+21с133243 0.0 10112447
19:00+20юз1241100 0.0 10101029
22:00+16зсз3451100 0.0 101275
14 июня, пн
пн1401:00+14ссз4967100 0.2 1013498
04:00+12ююз3888100 1.3 1013407
07:00+13зюз358799 2.1 1014334
10:00+14сз587497 1.4 1016892
13:00+16ссз685228 1.9 10161473
16:00+18с674026 0.0 10172158
19:00+17ссв4547100 0.0 10171067
22:00+12сз22645 0.0 101918
15 июня, вт
вт1501:00+10зсз22675 0.0 101910
04:00+9сз11675 0.0 101910
07:00+12сз11605 0.0 1020159
10:00+17ю00485 0.0 1019772
13:00+19юз11385 0.0 10182070
16:00+20ю123660 0.0 10172117
19:00+20юв224467 0.0 1016771
22:00+16ююз2254100 0.0 101639
16 июня, ср
ср1601:00+15ю225898 0.0 101648
04:00+13ю2265100 0.0 101521
07:00+14ююз2366100 0.0 1015172
10:00+19ю1254100 0.0 1015634
13:00+23ю234784 0.0 10141151
16:00+24сз234746 0.0 10131374
19:00+19св347646 0.8 1014217
22:00+15юв22904 0.3 101435
17 июня, чт
чт1701:00+14в11913 0.3 101410
04:00+13юв11915 0.0 101411
07:00+15юв22795 0.0 1014219
10:00+20ююв22660 0.0 1012585
13:00+24ююз22510 0.0 10101036
16:00+26ююв22420 0.0 10081365
19:00+26ююв22481 0.0 1006994
22:00+19с3375100 0.6 100744